Location: *
(38.3914°N, 75.0697°W)
Time: 19:53:55
(UTC+00:00)

ALOS - Pass Details

Date: 17 February 2020
Orbit: 684 x 685 km, 97.8° (Epoch: 07 April)

Event Time Altitude Azimuth Distance (km) Brightness Sun altitude
Rises 10:10:51 0° 12° (NNE) 3,056 5.8 -19.9°
Reaches altitude 10° 10:13:06 10° 12° (NNE) 2,136 4.9 -19.4°
Maximum altitude 10:17:47 89° 99° (E) 690 2.2 -18.5°
Drops below altitude 10° 10:22:26 10° 193° (SSW) 2,120 4.7 -17.6°
Sets 10:24:40 0° 194° (SSW) 3,031 5.5 -17.1°
